Location: *
(46.4000°N, 12.6667°E)
Time: 18:02:39
(UTC+00:00)

CZ-4C R/B - Pass Details

Date: 19 June 2021
Orbit: 606 x 1396 km, 63.4° (Epoch: 28 July)

Event Time Altitude Azimuth Distance (km) Brightness Sun altitude
Exits shadow 02:23:57 - 197° (SSW) 2,384 4.0 -7.6°
Reaches altitude 10° 02:24:39 10° 195° (SSW) 2,115 3.8 -7.6°
Maximum altitude 02:29:16 51° 120° (ESE) 956 2.6 -7.0°
Drops below altitude 10° 02:34:49 10° 46° (NE) 2,540 6.6 -6.3°
Sets 02:37:39 0° 42° (NE) 3,617 8.2 -6.0°
